Year,Month,Day,Hour,Minute,Value (Times are PST for windgust in km/hr)
2012,08,20,00,00,3.20
2012,08,20,00,01,1.60
2012,08,20,00,02,4.80
2012,08,20,00,04,9.60
2012,08,20,00,05,4.80
2012,08,20,00,06,8.10
2012,08,20,00,07,1.60
2012,08,20,00,08,1.60
2012,08,20,00,10,4.80
2012,08,20,00,11,8.10
2012,08,20,00,12,3.20
2012,08,20,00,14,4.80
2012,08,20,00,15,4.80
2012,08,20,00,16,3.20
2012,08,20,00,17,3.20
2012,08,20,00,18,4.80
2012,08,20,00,19,4.80
2012,08,20,00,20,4.80
2012,08,20,00,21,6.40
2012,08,20,00,23,3.20
2012,08,20,00,26,3.20
2012,08,20,00,28,1.60
2012,08,20,00,30,1.60
2012,08,20,00,31,1.60
2012,08,20,00,32,3.20
2012,08,20,00,33,1.60
2012,08,20,00,34,1.60
2012,08,20,00,35,6.40
2012,08,20,00,36,4.80
2012,08,20,00,37,8.10
2012,08,20,00,38,1.60
2012,08,20,00,39,1.60
2012,08,20,00,40,6.40
2012,08,20,00,41,4.80
2012,08,20,00,42,6.40
2012,08,20,00,43,9.60
2012,08,20,00,44,3.20
2012,08,20,00,45,3.20
2012,08,20,00,46,6.40
2012,08,20,00,47,6.40
2012,08,20,00,48,6.40
2012,08,20,00,49,4.80
2012,08,20,00,50,1.60
2012,08,20,00,52,1.60
2012,08,20,00,56,3.20
2012,08,20,00,57,1.60
2012,08,20,01,04,1.60
2012,08,20,01,05,1.60
2012,08,20,01,06,4.80
2012,08,20,01,07,3.20
2012,08,20,01,11,1.60
2012,08,20,01,14,1.60
2012,08,20,01,15,1.60
2012,08,20,01,19,1.60
2012,08,20,01,27,1.60
2012,08,20,01,30,1.60
2012,08,20,01,42,3.20
2012,08,20,01,43,1.60
2012,08,20,01,46,1.60
2012,08,20,01,47,1.60
2012,08,20,01,48,1.60
2012,08,20,01,53,1.60
2012,08,20,01,54,1.60
2012,08,20,01,57,1.60
2012,08,20,01,58,1.60
2012,08,20,01,59,1.60
2012,08,20,02,28,1.60
2012,08,20,02,29,1.60
2012,08,20,02,42,1.60
2012,08,20,02,43,1.60
2012,08,20,02,44,1.60
2012,08,20,02,52,1.60
2012,08,20,02,55,1.60
2012,08,20,02,56,1.60
2012,08,20,02,58,1.60
2012,08,20,02,59,3.20
2012,08,20,03,00,1.60
2012,08,20,03,01,1.60
2012,08,20,03,02,1.60
2012,08,20,03,03,3.20
2012,08,20,03,04,1.60
2012,08,20,03,05,1.60
2012,08,20,03,06,4.80
2012,08,20,03,07,4.80
2012,08,20,03,08,1.60
2012,08,20,03,09,1.60
2012,08,20,03,10,3.20
2012,08,20,03,11,4.80
2012,08,20,03,12,4.80
2012,08,20,03,16,1.60
2012,08,20,03,22,1.60
2012,08,20,03,23,1.60
2012,08,20,03,24,1.60
2012,08,20,03,25,1.60
2012,08,20,03,26,3.20
2012,08,20,03,50,1.60
2012,08,20,03,52,1.60
2012,08,20,03,53,1.60
2012,08,20,03,54,1.60
2012,08,20,03,55,1.60
2012,08,20,04,27,1.60
2012,08,20,04,28,1.60
2012,08,20,05,19,3.20
2012,08,20,05,20,3.20
2012,08,20,05,21,3.20
2012,08,20,05,22,4.80
2012,08,20,05,32,1.60
2012,08,20,05,48,1.60
2012,08,20,05,50,1.60
2012,08,20,06,22,1.60
2012,08,20,06,26,1.60
2012,08,20,07,26,1.60
2012,08,20,07,40,1.60
2012,08,20,07,42,1.60
2012,08,20,07,43,1.60
2012,08,20,07,44,1.60
2012,08,20,07,48,1.60
2012,08,20,07,53,1.60
2012,08,20,07,54,1.60
2012,08,20,07,58,1.60
2012,08,20,08,04,1.60
2012,08,20,08,05,1.60
2012,08,20,08,06,1.60
2012,08,20,08,07,1.60
2012,08,20,08,08,3.20
2012,08,20,08,11,1.60
2012,08,20,08,14,1.60
2012,08,20,08,15,1.60
2012,08,20,08,16,1.60
2012,08,20,08,22,3.20
2012,08,20,08,23,3.20
2012,08,20,08,24,1.60
2012,08,20,08,25,3.20
2012,08,20,08,28,1.60
2012,08,20,08,31,1.60
2012,08,20,08,32,1.60
2012,08,20,08,33,1.60
2012,08,20,08,34,1.60
2012,08,20,08,35,3.20
2012,08,20,08,38,1.60
2012,08,20,08,40,1.60
2012,08,20,08,41,1.60
2012,08,20,08,42,1.60
2012,08,20,08,43,1.60
2012,08,20,08,46,1.60
2012,08,20,08,48,3.20
2012,08,20,08,49,1.60
2012,08,20,08,50,1.60
2012,08,20,08,51,3.20
2012,08,20,08,52,3.20
2012,08,20,08,53,3.20
2012,08,20,08,54,1.60
2012,08,20,08,55,1.60
2012,08,20,08,56,1.60
2012,08,20,08,57,1.60
2012,08,20,08,58,3.20
2012,08,20,08,59,1.60
2012,08,20,09,00,1.60
2012,08,20,09,01,1.60
2012,08,20,09,02,1.60
2012,08,20,09,03,1.60
2012,08,20,09,04,3.20
2012,08,20,09,05,1.60
2012,08,20,09,06,1.60
2012,08,20,09,07,3.20
2012,08,20,09,08,4.80
2012,08,20,09,09,1.60
2012,08,20,09,10,1.60
2012,08,20,09,11,1.60
2012,08,20,09,12,1.60
2012,08,20,09,13,1.60
2012,08,20,09,14,3.20
2012,08,20,09,15,4.80
2012,08,20,09,16,4.80
2012,08,20,09,17,4.80
2012,08,20,09,18,3.20
2012,08,20,09,19,1.60
2012,08,20,09,20,1.60
2012,08,20,09,21,4.80
2012,08,20,09,22,4.80
2012,08,20,09,23,3.20
2012,08,20,09,24,4.80
2012,08,20,09,25,1.60
2012,08,20,09,26,3.20
2012,08,20,09,27,4.80
2012,08,20,09,28,4.80
2012,08,20,09,29,6.40
2012,08,20,09,30,6.40
2012,08,20,09,31,8.10
2012,08,20,09,32,3.20
2012,08,20,09,33,6.40
2012,08,20,09,34,4.80
2012,08,20,09,35,3.20
2012,08,20,09,36,8.10
2012,08,20,09,37,6.40
2012,08,20,09,38,6.40
2012,08,20,09,39,8.10
2012,08,20,09,40,8.10
2012,08,20,09,41,6.40
2012,08,20,09,42,6.40
2012,08,20,09,43,4.80
2012,08,20,09,44,1.60
2012,08,20,09,45,4.80
2012,08,20,09,46,8.10
2012,08,20,09,47,8.10
2012,08,20,09,48,8.10
2012,08,20,09,49,6.40
2012,08,20,09,50,4.80
2012,08,20,09,51,6.40
2012,08,20,09,52,6.40
2012,08,20,09,53,3.20
2012,08,20,09,54,3.20
2012,08,20,09,55,6.40
2012,08,20,09,56,1.60
2012,08,20,09,57,6.40
2012,08,20,09,58,6.40
2012,08,20,09,59,8.10
2012,08,20,10,00,8.10
2012,08,20,10,01,4.80
2012,08,20,10,02,4.80
2012,08,20,10,03,3.20
2012,08,20,10,04,6.40
2012,08,20,10,05,6.40
2012,08,20,10,06,4.80
2012,08,20,10,07,6.40
2012,08,20,10,08,6.40
2012,08,20,10,09,8.10
2012,08,20,10,10,9.60
2012,08,20,10,11,11.30
2012,08,20,10,12,8.10
2012,08,20,10,13,8.10
2012,08,20,10,14,6.40
2012,08,20,10,15,8.10
2012,08,20,10,16,9.60
2012,08,20,10,17,6.40
2012,08,20,10,18,1.60
2012,08,20,10,19,6.40
2012,08,20,10,20,8.10
2012,08,20,10,21,8.10
2012,08,20,10,22,11.30
2012,08,20,10,23,8.10
2012,08,20,10,24,6.40
2012,08,20,10,25,6.40
2012,08,20,10,26,8.10
2012,08,20,10,27,9.60
2012,08,20,10,28,11.30
2012,08,20,10,29,8.10
2012,08,20,10,30,8.10
2012,08,20,10,31,6.40
2012,08,20,10,32,14.50
2012,08,20,10,33,9.60
2012,08,20,10,34,9.60
2012,08,20,10,35,4.80
2012,08,20,10,36,6.40
2012,08,20,10,37,8.10
2012,08,20,10,38,4.80
2012,08,20,10,39,3.20
2012,08,20,10,40,3.20
2012,08,20,10,41,8.10
2012,08,20,10,42,9.60
2012,08,20,10,43,16.10
2012,08,20,10,44,14.50
2012,08,20,10,45,11.30
2012,08,20,10,46,9.60
2012,08,20,10,47,11.30
2012,08,20,10,48,8.10
2012,08,20,10,49,8.10
2012,08,20,10,50,16.10
2012,08,20,10,51,12.90
2012,08,20,10,52,8.10
2012,08,20,10,53,9.60
2012,08,20,10,54,9.60
2012,08,20,10,55,6.40
2012,08,20,10,56,8.10
2012,08,20,10,57,17.70
2012,08,20,10,58,14.50
2012,08,20,10,59,9.60
2012,08,20,11,00,9.60
2012,08,20,11,01,8.10
2012,08,20,11,02,8.10
2012,08,20,11,03,14.50
2012,08,20,11,04,16.10
2012,08,20,11,05,19.30
2012,08,20,11,06,19.30
2012,08,20,11,07,17.70
2012,08,20,11,08,11.30
2012,08,20,11,09,8.10
2012,08,20,11,10,9.60
2012,08,20,11,11,9.60
2012,08,20,11,12,8.10
2012,08,20,11,13,16.10
2012,08,20,11,14,9.60
2012,08,20,11,15,9.60
2012,08,20,11,16,11.30
2012,08,20,11,17,9.60
2012,08,20,11,18,11.30
2012,08,20,11,19,8.10
2012,08,20,11,20,16.10
2012,08,20,11,21,16.10
2012,08,20,11,22,8.10
2012,08,20,11,23,8.10
2012,08,20,11,24,14.50
2012,08,20,11,25,11.30
2012,08,20,11,26,16.10
2012,08,20,11,27,11.30
2012,08,20,11,28,8.10
2012,08,20,11,29,11.30
2012,08,20,11,30,4.80
2012,08,20,11,31,14.50
2012,08,20,11,32,17.70
2012,08,20,11,33,12.90
2012,08,20,11,34,16.10
2012,08,20,11,35,9.60
2012,08,20,11,36,11.30
2012,08,20,11,37,17.70
2012,08,20,11,38,14.50
2012,08,20,11,39,16.10
2012,08,20,11,40,11.30
2012,08,20,11,41,9.60
2012,08,20,11,42,6.40
2012,08,20,11,43,8.10
2012,08,20,11,44,8.10
2012,08,20,11,45,8.10
2012,08,20,11,46,4.80
2012,08,20,11,47,14.50
2012,08,20,11,48,11.30
2012,08,20,11,49,14.50
2012,08,20,11,50,17.70
2012,08,20,11,51,4.80
2012,08,20,11,52,9.60
2012,08,20,11,53,9.60
2012,08,20,11,54,11.30
2012,08,20,11,55,16.10
2012,08,20,11,56,11.30
2012,08,20,11,57,17.70
2012,08,20,11,58,11.30
2012,08,20,11,59,17.70
2012,08,20,12,00,17.70
2012,08,20,12,01,19.30
2012,08,20,12,02,16.10
2012,08,20,12,03,16.10
2012,08,20,12,04,16.10
2012,08,20,12,05,16.10
2012,08,20,12,06,16.10
2012,08,20,12,07,14.50
2012,08,20,12,08,17.70
2012,08,20,12,09,11.30
2012,08,20,12,10,8.10
2012,08,20,12,11,6.40
2012,08,20,12,12,16.10
2012,08,20,12,13,11.30
2012,08,20,12,14,19.30
2012,08,20,12,15,17.70
2012,08,20,12,16,11.30
2012,08,20,12,17,14.50
2012,08,20,12,18,9.60
2012,08,20,12,19,14.50
2012,08,20,12,20,14.50
2012,08,20,12,21,8.10
2012,08,20,12,22,8.10
2012,08,20,12,23,16.10
2012,08,20,12,24,14.50
2012,08,20,12,25,17.70
2012,08,20,12,26,11.30
2012,08,20,12,27,9.60
2012,08,20,12,28,17.70
2012,08,20,12,29,9.60
2012,08,20,12,30,6.40
2012,08,20,12,31,6.40
2012,08,20,12,32,12.90
2012,08,20,12,33,19.30
2012,08,20,12,34,19.30
2012,08,20,12,35,17.70
2012,08,20,12,36,16.10
2012,08,20,12,37,17.70
2012,08,20,12,38,17.70
2012,08,20,12,39,14.50
2012,08,20,12,40,24.20
2012,08,20,12,41,16.10
2012,08,20,12,42,24.20
2012,08,20,12,43,25.70
2012,08,20,12,44,20.90
2012,08,20,12,45,19.30
2012,08,20,12,46,6.40
2012,08,20,12,47,9.60
2012,08,20,12,48,14.50
2012,08,20,12,49,19.30
2012,08,20,12,50,19.30
2012,08,20,12,51,17.70
2012,08,20,12,52,20.90
2012,08,20,12,53,20.90
2012,08,20,12,54,16.10
2012,08,20,12,55,22.50
2012,08,20,12,56,17.70
2012,08,20,12,57,22.50
2012,08,20,12,58,20.90
2012,08,20,12,59,14.50
2012,08,20,13,00,17.70
2012,08,20,13,01,19.30
2012,08,20,13,02,25.70
2012,08,20,13,03,22.50
2012,08,20,13,04,19.30
2012,08,20,13,05,16.10
2012,08,20,13,06,14.50
2012,08,20,13,07,17.70
2012,08,20,13,08,11.30
2012,08,20,13,09,11.30
2012,08,20,13,10,6.40
2012,08,20,13,11,17.70
2012,08,20,13,12,8.10
2012,08,20,13,13,11.30
2012,08,20,13,14,19.30
2012,08,20,13,15,11.30
2012,08,20,13,16,16.10
2012,08,20,13,17,14.50
2012,08,20,13,18,12.90
2012,08,20,13,19,8.10
2012,08,20,13,20,6.40
2012,08,20,13,21,16.10
2012,08,20,13,22,16.10
2012,08,20,13,23,14.50
2012,08,20,13,24,16.10
2012,08,20,13,25,8.10
2012,08,20,13,26,8.10
2012,08,20,13,27,14.50
2012,08,20,13,28,11.30
2012,08,20,13,29,11.30
2012,08,20,13,30,16.10
2012,08,20,13,31,16.10
2012,08,20,13,32,22.50
2012,08,20,13,33,11.30
2012,08,20,13,34,11.30
2012,08,20,13,35,24.20
2012,08,20,13,36,11.30
2012,08,20,13,37,17.70
2012,08,20,13,38,14.50
2012,08,20,13,39,17.70
2012,08,20,13,40,14.50
2012,08,20,13,41,20.90
2012,08,20,13,42,16.10
2012,08,20,13,43,19.30
2012,08,20,13,44,17.70
2012,08,20,13,45,16.10
2012,08,20,13,46,9.60
2012,08,20,13,47,19.30
2012,08,20,13,48,19.30
2012,08,20,13,49,14.50
2012,08,20,13,50,16.10
2012,08,20,13,51,14.50
2012,08,20,13,52,17.70
2012,08,20,13,53,14.50
2012,08,20,13,54,19.30
2012,08,20,13,55,14.50
2012,08,20,13,56,19.30
2012,08,20,13,57,22.50
2012,08,20,13,58,19.30
2012,08,20,13,59,11.30
2012,08,20,14,00,16.10
2012,08,20,14,01,16.10
2012,08,20,14,02,17.70
2012,08,20,14,03,19.30
2012,08,20,14,04,19.30
2012,08,20,14,05,16.10
2012,08,20,14,06,17.70
2012,08,20,14,07,19.30
2012,08,20,14,08,17.70
2012,08,20,14,09,9.60
2012,08,20,14,10,19.30
2012,08,20,14,11,14.50
2012,08,20,14,12,20.90
2012,08,20,14,13,22.50
2012,08,20,14,14,17.70
2012,08,20,14,15,17.70
2012,08,20,14,16,19.30
2012,08,20,14,17,20.90
2012,08,20,14,18,19.30
2012,08,20,14,19,19.30
2012,08,20,14,20,19.30
2012,08,20,14,21,16.10
2012,08,20,14,22,17.70
2012,08,20,14,23,11.30
2012,08,20,14,24,19.30
2012,08,20,14,25,17.70
2012,08,20,14,26,11.30
2012,08,20,14,27,11.30
2012,08,20,14,28,11.30
2012,08,20,14,29,17.70
2012,08,20,14,30,16.10
2012,08,20,14,31,22.50
2012,08,20,14,32,16.10
2012,08,20,14,33,22.50
2012,08,20,14,34,16.10
2012,08,20,14,35,17.70
2012,08,20,14,36,17.70
2012,08,20,14,37,25.70
2012,08,20,14,38,17.70
2012,08,20,14,39,14.50
2012,08,20,14,40,17.70
2012,08,20,14,41,11.30
2012,08,20,14,42,19.30
2012,08,20,14,43,19.30
2012,08,20,14,44,17.70
2012,08,20,14,45,8.10
2012,08,20,14,46,11.30
2012,08,20,14,47,11.30
2012,08,20,14,48,14.50
2012,08,20,14,49,14.50
2012,08,20,14,50,19.30
2012,08,20,14,51,14.50
2012,08,20,14,52,11.30
2012,08,20,14,53,14.50
2012,08,20,14,54,14.50
2012,08,20,14,55,11.30
2012,08,20,14,56,24.20
2012,08,20,14,57,19.30
2012,08,20,14,58,16.10
2012,08,20,14,59,19.30
2012,08,20,15,00,16.10
2012,08,20,15,01,16.10
2012,08,20,15,02,17.70
2012,08,20,15,03,16.10
2012,08,20,15,04,16.10
2012,08,20,15,05,14.50
2012,08,20,15,06,24.20
2012,08,20,15,07,16.10
2012,08,20,15,08,9.60
2012,08,20,15,09,16.10
2012,08,20,15,10,11.30
2012,08,20,15,11,17.70
2012,08,20,15,12,19.30
2012,08,20,15,13,9.60
2012,08,20,15,14,17.70
2012,08,20,15,15,14.50
2012,08,20,15,16,14.50
2012,08,20,15,17,14.50
2012,08,20,15,18,16.10
2012,08,20,15,19,16.10
2012,08,20,15,20,9.60
2012,08,20,15,21,16.10
2012,08,20,15,22,14.50
2012,08,20,15,23,16.10
2012,08,20,15,24,12.90
2012,08,20,15,25,17.70
2012,08,20,15,26,19.30
2012,08,20,15,27,16.10
2012,08,20,15,28,20.90
2012,08,20,15,29,14.50
2012,08,20,15,30,16.10
2012,08,20,15,31,17.70
2012,08,20,15,32,19.30
2012,08,20,15,33,14.50
2012,08,20,15,34,12.90
2012,08,20,15,35,17.70
2012,08,20,15,36,16.10
2012,08,20,15,37,19.30
2012,08,20,15,38,14.50
2012,08,20,15,39,17.70
2012,08,20,15,40,20.90
2012,08,20,15,41,19.30
2012,08,20,15,42,22.50
2012,08,20,15,43,17.70
2012,08,20,15,44,11.30
2012,08,20,15,45,16.10
2012,08,20,15,46,24.20
2012,08,20,15,47,14.50
2012,08,20,15,48,14.50
2012,08,20,15,49,6.40
2012,08,20,15,50,9.60
2012,08,20,15,51,9.60
2012,08,20,15,52,16.10
2012,08,20,15,53,16.10
2012,08,20,15,54,16.10
2012,08,20,15,55,17.70
2012,08,20,15,56,19.30
2012,08,20,15,57,17.70
2012,08,20,15,58,11.30
2012,08,20,15,59,11.30
2012,08,20,16,00,12.90
2012,08,20,16,01,16.10
2012,08,20,16,02,20.90
2012,08,20,16,03,17.70
2012,08,20,16,04,16.10
2012,08,20,16,05,14.50
2012,08,20,16,06,17.70
2012,08,20,16,07,19.30
2012,08,20,16,08,19.30
2012,08,20,16,09,14.50
2012,08,20,16,10,4.80
2012,08,20,16,11,6.40
2012,08,20,16,12,11.30
2012,08,20,16,13,14.50
2012,08,20,16,14,17.70
2012,08,20,16,15,19.30
2012,08,20,16,16,9.60
2012,08,20,16,17,8.10
2012,08,20,16,18,24.20
2012,08,20,16,19,17.70
2012,08,20,16,20,14.50
2012,08,20,16,21,11.30
2012,08,20,16,22,14.50
2012,08,20,16,23,11.30
2012,08,20,16,24,8.10
2012,08,20,16,25,16.10
2012,08,20,16,26,16.10
2012,08,20,16,27,19.30
2012,08,20,16,28,16.10
2012,08,20,16,29,11.30
2012,08,20,16,30,14.50
2012,08,20,16,31,6.40
2012,08,20,16,32,9.60
2012,08,20,16,33,4.80
2012,08,20,16,34,11.30
2012,08,20,16,35,14.50
2012,08,20,16,36,8.10
2012,08,20,16,37,9.60
2012,08,20,16,38,9.60
2012,08,20,16,39,11.30
2012,08,20,16,40,9.60
2012,08,20,16,41,6.40
2012,08,20,16,42,9.60
2012,08,20,16,43,6.40
2012,08,20,16,44,8.10
2012,08,20,16,45,17.70
2012,08,20,16,46,14.50
2012,08,20,16,47,24.20
2012,08,20,16,48,9.60
2012,08,20,16,49,11.30
2012,08,20,16,50,24.20
2012,08,20,16,51,17.70
2012,08,20,16,52,17.70
2012,08,20,16,53,16.10
2012,08,20,16,54,11.30
2012,08,20,16,55,22.50
2012,08,20,16,56,14.50
2012,08,20,16,57,22.50
2012,08,20,16,58,24.20
2012,08,20,16,59,24.20
2012,08,20,17,00,12.90
2012,08,20,17,01,19.30
2012,08,20,17,02,20.90
2012,08,20,17,03,24.20
2012,08,20,17,04,22.50
2012,08,20,17,05,29.00
2012,08,20,17,06,9.60
2012,08,20,17,07,12.90
2012,08,20,17,08,8.10
2012,08,20,17,09,9.60
2012,08,20,17,10,22.50
2012,08,20,17,11,19.30
2012,08,20,17,12,17.70
2012,08,20,17,13,19.30
2012,08,20,17,14,8.10
2012,08,20,17,15,8.10
2012,08,20,17,16,14.50
2012,08,20,17,17,4.80
2012,08,20,17,18,14.50
2012,08,20,17,19,11.30
2012,08,20,17,20,11.30
2012,08,20,17,21,17.70
2012,08,20,17,22,19.30
2012,08,20,17,23,19.30
2012,08,20,17,24,20.90
2012,08,20,17,25,14.50
2012,08,20,17,26,12.90
2012,08,20,17,27,14.50
2012,08,20,17,28,16.10
2012,08,20,17,29,9.60
2012,08,20,17,30,9.60
2012,08,20,17,31,25.70
2012,08,20,17,32,16.10
2012,08,20,17,33,17.70
2012,08,20,17,34,20.90
2012,08,20,17,35,20.90
2012,08,20,17,36,19.30
2012,08,20,17,37,14.50
2012,08,20,17,38,14.50
2012,08,20,17,39,14.50
2012,08,20,17,40,19.30
2012,08,20,17,41,11.30
2012,08,20,17,42,14.50
2012,08,20,17,43,14.50
2012,08,20,17,44,11.30
2012,08,20,17,45,17.70
2012,08,20,17,46,11.30
2012,08,20,17,47,9.60
2012,08,20,17,48,14.50
2012,08,20,17,49,11.30
2012,08,20,17,50,8.10
2012,08,20,17,51,6.40
2012,08,20,17,52,14.50
2012,08,20,17,53,12.90
2012,08,20,17,54,14.50
2012,08,20,17,55,17.70
2012,08,20,17,56,9.60
2012,08,20,17,57,11.30
2012,08,20,17,58,11.30
2012,08,20,17,59,19.30
2012,08,20,18,00,17.70
2012,08,20,18,01,12.90
2012,08,20,18,02,20.90
2012,08,20,18,03,6.40
2012,08,20,18,04,14.50
2012,08,20,18,05,16.10
2012,08,20,18,06,14.50
2012,08,20,18,07,11.30
2012,08,20,18,08,8.10
2012,08,20,18,09,14.50
2012,08,20,18,10,11.30
2012,08,20,18,11,6.40
2012,08,20,18,12,11.30
2012,08,20,18,13,9.60
2012,08,20,18,14,11.30
2012,08,20,18,15,11.30
2012,08,20,18,16,12.90
2012,08,20,18,17,11.30
2012,08,20,18,18,16.10
2012,08,20,18,19,9.60
2012,08,20,18,20,9.60
2012,08,20,18,21,8.10
2012,08,20,18,22,4.80
2012,08,20,18,23,1.60
2012,08,20,18,25,4.80
2012,08,20,18,26,8.10
2012,08,20,18,27,9.60
2012,08,20,18,28,3.20
2012,08,20,18,29,8.10
2012,08,20,18,30,8.10
2012,08,20,18,31,8.10
2012,08,20,18,32,8.10
2012,08,20,18,33,4.80
2012,08,20,18,34,1.60
2012,08,20,18,35,1.60
2012,08,20,18,36,3.20
2012,08,20,18,37,1.60
2012,08,20,18,38,3.20
2012,08,20,18,39,8.10
2012,08,20,18,40,11.30
2012,08,20,18,41,4.80
2012,08,20,18,42,9.60
2012,08,20,18,43,6.40
2012,08,20,18,44,12.90
2012,08,20,18,45,8.10
2012,08,20,18,46,9.60
2012,08,20,18,47,3.20
2012,08,20,18,48,1.60
2012,08,20,18,49,1.60
2012,08,20,18,50,3.20
2012,08,20,18,51,1.60
2012,08,20,18,52,3.20
2012,08,20,18,53,8.10
2012,08,20,18,54,6.40
2012,08,20,18,55,8.10
2012,08,20,18,56,9.60
2012,08,20,18,57,8.10
2012,08,20,18,58,4.80
2012,08,20,18,59,14.50
2012,08,20,19,00,12.90
2012,08,20,19,01,4.80
2012,08,20,19,02,6.40
2012,08,20,19,03,8.10
2012,08,20,19,04,8.10
2012,08,20,19,05,11.30
2012,08,20,19,06,14.50
2012,08,20,19,07,17.70
2012,08,20,19,08,9.60
2012,08,20,19,09,9.60
2012,08,20,19,10,3.20
2012,08,20,19,11,14.50
2012,08,20,19,12,14.50
2012,08,20,19,13,6.40
2012,08,20,19,14,4.80
2012,08,20,19,15,6.40
2012,08,20,19,16,19.30
2012,08,20,19,17,16.10
2012,08,20,19,18,11.30
2012,08,20,19,19,9.60
2012,08,20,19,20,8.10
2012,08,20,19,21,14.50
2012,08,20,19,22,19.30
2012,08,20,19,23,17.70
2012,08,20,19,24,4.80
2012,08,20,19,25,8.10
2012,08,20,19,26,3.20
2012,08,20,19,27,1.60
2012,08,20,19,28,1.60
2012,08,20,19,29,16.10
2012,08,20,19,30,9.60
2012,08,20,19,31,9.60
2012,08,20,19,32,9.60
2012,08,20,19,33,17.70
2012,08,20,19,34,8.10
2012,08,20,19,35,9.60
2012,08,20,19,36,16.10
2012,08,20,19,37,6.40
2012,08,20,19,38,11.30
2012,08,20,19,39,4.80
2012,08,20,19,40,11.30
2012,08,20,19,41,12.90
2012,08,20,19,42,16.10
2012,08,20,19,43,8.10
2012,08,20,19,44,8.10
2012,08,20,19,45,11.30
2012,08,20,19,46,8.10
2012,08,20,19,47,9.60
2012,08,20,19,48,8.10
2012,08,20,19,49,6.40
2012,08,20,19,50,8.10
2012,08,20,19,51,8.10
2012,08,20,19,52,8.10
2012,08,20,19,53,9.60
2012,08,20,19,54,3.20
2012,08,20,19,55,1.60
2012,08,20,19,56,11.30
2012,08,20,19,57,6.40
2012,08,20,19,58,6.40
2012,08,20,19,59,9.60
2012,08,20,20,00,4.80
2012,08,20,20,01,1.60
2012,08,20,20,02,3.20
2012,08,20,20,03,8.10
2012,08,20,20,04,1.60
2012,08,20,20,05,8.10
2012,08,20,20,06,8.10
2012,08,20,20,07,4.80
2012,08,20,20,09,6.40
2012,08,20,20,10,3.20
2012,08,20,20,11,6.40
2012,08,20,20,12,9.60
2012,08,20,20,13,9.60
2012,08,20,20,14,3.20
2012,08,20,20,15,6.40
2012,08,20,20,16,9.60
2012,08,20,20,17,11.30
2012,08,20,20,18,9.60
2012,08,20,20,19,1.60
2012,08,20,20,20,3.20
2012,08,20,20,21,8.10
2012,08,20,20,22,3.20
2012,08,20,20,23,8.10
2012,08,20,20,24,3.20
2012,08,20,20,25,3.20
2012,08,20,20,26,1.60
2012,08,20,20,27,4.80
2012,08,20,20,30,3.20
2012,08,20,20,31,3.20
2012,08,20,20,32,8.10
2012,08,20,20,33,1.60
2012,08,20,20,34,3.20
2012,08,20,20,35,1.60
2012,08,20,20,38,1.60
2012,08,20,20,39,1.60
2012,08,20,20,40,8.10
2012,08,20,20,41,1.60
2012,08,20,20,42,1.60
2012,08,20,20,43,6.40
2012,08,20,20,44,3.20
2012,08,20,20,45,4.80
2012,08,20,20,46,8.10
2012,08,20,20,47,4.80
2012,08,20,20,49,3.20
2012,08,20,20,50,6.40
2012,08,20,20,51,8.10
2012,08,20,20,52,6.40
2012,08,20,20,53,9.60
2012,08,20,20,54,11.30
2012,08,20,20,55,17.70
2012,08,20,20,56,16.10
2012,08,20,20,57,14.50
2012,08,20,20,58,9.60
2012,08,20,20,59,14.50
2012,08,20,21,00,14.50
2012,08,20,21,01,11.30
2012,08,20,21,02,8.10
2012,08,20,21,03,9.60
2012,08,20,21,04,4.80
2012,08,20,21,05,4.80
2012,08,20,21,06,3.20
2012,08,20,21,07,11.30
2012,08,20,21,08,11.30
2012,08,20,21,09,8.10
2012,08,20,21,10,4.80
2012,08,20,21,11,9.60
2012,08,20,21,12,16.10
2012,08,20,21,13,12.90
2012,08,20,21,14,6.40
2012,08,20,21,16,6.40
2012,08,20,21,17,6.40
2012,08,20,21,18,3.20
2012,08,20,21,19,3.20
2012,08,20,21,20,3.20
2012,08,20,21,21,11.30
2012,08,20,21,22,6.40
2012,08,20,21,23,6.40
2012,08,20,21,24,8.10
2012,08,20,21,25,8.10
2012,08,20,21,26,8.10
2012,08,20,21,27,1.60
2012,08,20,21,28,11.30
2012,08,20,21,29,1.60
2012,08,20,21,30,9.60
2012,08,20,21,31,9.60
2012,08,20,21,32,8.10
2012,08,20,21,33,8.10
2012,08,20,21,34,11.30
2012,08,20,21,35,9.60
2012,08,20,21,36,11.30
2012,08,20,21,37,9.60
2012,08,20,21,38,14.50
2012,08,20,21,39,17.70
2012,08,20,21,40,17.70
2012,08,20,21,41,17.70
2012,08,20,21,42,11.30
2012,08,20,21,43,6.40
2012,08,20,21,44,14.50
2012,08,20,21,45,11.30
2012,08,20,21,46,14.50
2012,08,20,21,47,14.50
2012,08,20,21,48,4.80
2012,08,20,21,49,16.10
2012,08,20,21,50,14.50
2012,08,20,21,51,8.10
2012,08,20,21,52,6.40
2012,08,20,21,53,4.80
2012,08,20,21,54,11.30
2012,08,20,21,55,11.30
2012,08,20,21,56,8.10
2012,08,20,21,57,8.10
2012,08,20,21,58,6.40
2012,08,20,21,59,3.20
2012,08,20,22,00,6.40
2012,08,20,22,01,4.80
2012,08,20,22,02,9.60
2012,08,20,22,03,6.40
2012,08,20,22,04,4.80
2012,08,20,22,05,8.10
2012,08,20,22,06,8.10
2012,08,20,22,07,9.60
2012,08,20,22,08,14.50
2012,08,20,22,09,11.30
2012,08,20,22,10,6.40
2012,08,20,22,11,14.50
2012,08,20,22,12,9.60
2012,08,20,22,13,8.10
2012,08,20,22,14,6.40
2012,08,20,22,15,9.60
2012,08,20,22,16,9.60
2012,08,20,22,17,16.10
2012,08,20,22,18,14.50
2012,08,20,22,19,9.60
2012,08,20,22,20,8.10
2012,08,20,22,21,4.80
2012,08,20,22,22,11.30
2012,08,20,22,23,6.40
2012,08,20,22,24,4.80
2012,08,20,22,25,9.60
2012,08,20,22,26,3.20
2012,08,20,22,27,8.10
2012,08,20,22,28,8.10
2012,08,20,22,29,11.30
2012,08,20,22,30,9.60
2012,08,20,22,31,11.30
2012,08,20,22,32,12.90
2012,08,20,22,33,9.60
2012,08,20,22,34,17.70
2012,08,20,22,35,14.50
2012,08,20,22,36,19.30
2012,08,20,22,37,14.50
2012,08,20,22,38,8.10
2012,08,20,22,39,16.10
2012,08,20,22,40,19.30
2012,08,20,22,41,17.70
2012,08,20,22,42,16.10
2012,08,20,22,43,11.30
2012,08,20,22,44,17.70
2012,08,20,22,45,16.10
2012,08,20,22,46,11.30
2012,08,20,22,47,14.50
2012,08,20,22,48,12.90
2012,08,20,22,49,8.10
2012,08,20,22,50,9.60
2012,08,20,22,51,16.10
2012,08,20,22,52,16.10
2012,08,20,22,53,9.60
2012,08,20,22,54,6.40
2012,08,20,22,55,17.70
2012,08,20,22,56,16.10
2012,08,20,22,57,17.70
2012,08,20,22,58,11.30
2012,08,20,22,59,9.60
2012,08,20,23,00,8.10
2012,08,20,23,01,11.30
2012,08,20,23,02,9.60
2012,08,20,23,03,9.60
2012,08,20,23,04,11.30
2012,08,20,23,05,9.60
2012,08,20,23,06,6.40
2012,08,20,23,07,4.80
2012,08,20,23,08,3.20
2012,08,20,23,09,11.30
2012,08,20,23,10,4.80
2012,08,20,23,11,20.90
2012,08,20,23,12,11.30
2012,08,20,23,13,6.40
2012,08,20,23,14,9.60
2012,08,20,23,15,11.30
2012,08,20,23,16,9.60
2012,08,20,23,17,17.70
2012,08,20,23,18,6.40
2012,08,20,23,19,8.10
2012,08,20,23,20,12.90
2012,08,20,23,21,9.60
2012,08,20,23,22,9.60
2012,08,20,23,23,4.80
2012,08,20,23,24,4.80
2012,08,20,23,25,1.60
2012,08,20,23,26,6.40
2012,08,20,23,27,3.20
2012,08,20,23,28,16.10
2012,08,20,23,29,8.10
2012,08,20,23,30,1.60
2012,08,20,23,31,11.30
2012,08,20,23,32,11.30
2012,08,20,23,33,1.60
2012,08,20,23,34,1.60
2012,08,20,23,35,8.10
2012,08,20,23,36,1.60
2012,08,20,23,37,6.40
2012,08,20,23,38,1.60
2012,08,20,23,39,6.40
2012,08,20,23,40,11.30
2012,08,20,23,41,9.60
2012,08,20,23,42,8.10
2012,08,20,23,43,6.40
2012,08,20,23,44,1.60
2012,08,20,23,45,3.20
2012,08,20,23,47,3.20
2012,08,20,23,48,9.60
2012,08,20,23,49,17.70
2012,08,20,23,50,8.10
2012,08,20,23,51,9.60
2012,08,20,23,52,6.40
2012,08,20,23,53,6.40
2012,08,20,23,54,11.30
2012,08,20,23,55,8.10
2012,08,20,23,56,3.20
2012,08,20,23,57,3.20
2012,08,20,23,58,4.80
2012,08,20,23,59,4.80
